Theta_e
336 335 333 331 330 331 332 332 332 332 334 336 336 336 336 336 335 335 334 334 335 335 334 333 334 334 333 332 331 331 330 330 328 327 327 326 325 323 318 316 318 319 320 321 319 320 320 318 317 317 317 317 317 316 315 314 312 311 311 311 310 307 304 301 301 302 301 301 300 300 300 300 300 300 300 300 301 302 302 302 300 299 298 299 302
336 335 336 335 334 334 335 336 335 335 335 336 337 337 337 336 336 335 335 335 335 335 335 334 334 334 334 333 332 332 331 331 330 329 327 326 326 325 323 320 318 318 317 318 319 319 319 318 317 316 315 314 314 316 316 314 311 310 309 310 310 309 307 303 301 301 300 300 300 300 300 300 300 299 300 300 301 302 302 302 301 299 298 298 300
336 335 336 336 335 335 337 337 336 336 335 334 336 337 336 337 336 336 336 335 335 335 335 335 334 334 334 333 333 332 332 331 330 330 328 327 327 326 325 324 322 321 319 318 319 318 318 318 318 317 315 313 313 314 315 315 313 310 309 309 308 308 307 305 301 301 300 300 300 300 300 300 300 299 300 300 300 302 302 302 302 300 299 299 299
336 336 336 337 337 337 338 338 336 336 336 334 334 336 336 337 337 336 336 335 336 335 334 335 335 334 334 334 334 333 332 331 331 330 329 327 327 326 325 325 324 324 324 322 321 320 319 316 314 316 315 314 314 312 314 315 312 310 310 309 308 307 305 304 302 301 301 300 300 300 300 299 299 299 300 300 300 301 302 302 302 301 299 299 299
336 336 335 335 335 337 338 338 338 336 336 335 335 337 336 336 336 336 336 336 336 335 335 336 335 335 335 335 334 334 333 332 331 330 330 329 328 327 326 325 325 325 325 325 324 324 323 320 315 314 314 314 314 313 313 314 310 309 309 308 308 307 305 304 302 301 301 300 300 300 300 299 299 299 299 300 300 301 302 302 302 302 300 299 299
335 335 334 333 332 334 336 335 336 336 335 334 335 337 336 334 334 335 336 337 336 335 336 336 335 335 335 335 334 334 334 333 332 331 331 330 329 328 327 327 326 326 326 326 326 325 325 324 323 320 315 312 312 312 311 310 310 309 307 306 307 308 307 304 302 301 301 300 300 300 299 299 299 299 299 300 300 300 301 302 302 302 301 299 299
335 334 333 331 329 333 333 332 334 333 333 331 331 333 334 334 334 335 336 337 336 335 336 336 335 336 334 334 335 334 334 333 333 332 331 331 331 330 329 328 327 327 326 326 326 326 325 325 325 324 320 315 311 310 309 307 308 308 307 306 305 306 306 306 304 301 301 300 300 300 299 299 299 299 299 299 300 300 301 302 302 302 302 300 299
331 331 329 323 323 330 333 333 331 328 328 326 328 330 332 335 336 335 335 337 337 335 336 335 335 336 333 334 335 334 335 335 333 333 332 332 332 331 330 330 329 328 327 327 327 326 326 325 325 325 324 321 317 313 312 310 307 306 306 307 305 303 304 305 305 302 301 301 300 300 299 299 299 299 299 299 299 300 300 301 302 302 302 301 300
322 325 329 322 316 322 328 329 323 321 324 323 329 333 332 332 333 334 334 335 336 335 336 335 335 336 334 334 333 331 334 335 333 333 333 333 333 332 332 331 330 329 328 328 328 327 327 326 325 325 325 324 323 320 317 315 311 308 306 306 306 304 303 302 303 302 301 301 300 300 300 299 299 299 299 299 299 300 300 301 302 302 302 302 301
314 317 328 329 321 321 326 324 316 316 318 318 328 335 333 331 328 330 332 333 333 334 334 334 335 335 336 336 333 329 331 333 332 333 333 334 333 333 333 332 331 330 329 329 328 328 328 327 326 325 325 325 325 324 322 321 319 315 311 308 305 304 303 302 302 302 301 301 301 300 300 300 299 299 299 299 299 300 300 301 301 302 302 302 302
312 312 322 331 328 326 326 322 315 313 313 313 321 331 334 330 324 324 329 331 332 332 331 333 334 335 335 336 334 331 331 331 331 331 332 334 334 333 333 332 332 331 330 330 329 329 329 328 327 326 326 325 325 325 324 324 323 322 320 315 310 306 304 302 302 302 301 301 301 301 300 300 300 299 299 299 299 300 300 300 301 301 302 302 302
313 311 315 325 330 330 328 326 320 314 312 312 313 323 330 326 321 319 320 323 327 330 331 331 333 335 335 335 333 330 330 331 330 329 330 333 334 334 334 333 333 332 331 331 330 330 330 329 329 327 326 326 326 326 325 325 324 324 324 322 318 313 308 304 302 301 302 301 301 301 301 300 300 300 300 300 300 299 300 300 301 301 302 302 302
313 313 312 318 327 332 332 330 328 319 313 313 311 317 324 322 318 317 315 316 319 325 330 332 332 334 335 335 334 331 329 329 328 329 330 331 333 333 334 334 333 333 332 332 331 331 330 330 330 329 328 327 326 326 326 326 326 325 324 324 323 320 314 309 305 303 302 302 301 301 301 300 300 300 300 300 300 300 300 300 300 301 301 302 302
313 313 312 314 319 329 334 331 330 324 317 315 313 316 325 326 321 318 317 317 316 319 326 332 333 334 335 336 336 335 333 331 329 329 328 329 331 332 333 334 333 333 333 332 332 331 331 331 330 329 329 329 328 327 327 327 327 325 324 324 324 323 319 314 311 308 305 303 302 301 301 301 300 300 300 300 300 300 300 300 300 301 301 301 302
313 314 313 313 313 322 331 329 326 323 320 319 318 317 323 327 323 319 321 323 323 321 323 329 332 332 334 335 336 337 337 336 332 331 329 327 328 329 332 334 334 334 334 333 333 332 332 332 331 330 330 330 329 328 328 328 328 326 324 324 324 324 323 320 316 314 312 308 305 303 302 301 301 301 301 300 300 300 300 300 300 301 301 301 301
313 313 312 313 312 314 320 322 320 318 319 322 323 322 320 323 322 321 325 328 330 329 326 327 329 330 332 334 335 336 336 335 334 334 333 330 326 325 330 333 334 335 335 334 333 333 333 332 332 332 331 330 330 330 329 329 329 327 325 324 324 324 324 323 321 319 317 315 312 308 305 303 302 301 301 301 301 300 300 300 300 300 301 301 301
317 315 313 313 312 312 312 313 314 314 316 320 324 326 324 325 325 324 327 328 331 333 330 328 327 328 330 333 335 336 336 335 334 335 336 333 328 325 327 330 333 335 335 335 334 333 333 333 333 332 332 331 331 331 331 330 330 329 327 326 325 324 324 324 324 322 320 318 317 315 312 308 305 302 301 301 301 301 301 300 300 300 301 301 301
323 321 321 319 316 316 315 314 315 315 318 322 326 327 328 333 334 330 328 328 330 332 331 330 329 329 330 330 333 336 337 336 335 335 335 334 333 330 330 330 331 332 333 333 333 333 334 333 333 333 333 332 332 332 332 331 331 330 329 327 327 326 325 325 324 324 323 321 320 319 317 315 311 306 303 302 302 302 301 301 300 300 300 301 301
325 323 326 327 324 322 322 320 320 321 322 324 326 325 327 336 339 336 334 333 332 331 331 332 332 333 334 333 331 330 332 334 335 336 335 335 335 334 334 334 333 332 331 331 332 334 334 334 334 333 333 333 333 333 332 332 332 330 329 329 328 327 326 326 325 325 324 323 322 321 320 319 316 312 308 304 302 302 302 302 301 301 301 301 301
324 322 324 327 325 323 324 323 322 323 323 321 321 321 323 332 337 337 337 336 335 333 331 332 332 333 335 335 334 330 330 332 333 335 336 336 336 335 335 335 335 334 333 332 332 334 335 334 335 334 334 334 333 333 333 332 332 331 330 330 329 328 327 327 327 327 326 325 324 323 322 321 320 317 313 308 305 303 303 303 302 301 301 301 301
323 322 322 323 323 322 322 323 322 322 322 319 319 320 320 324 330 334 336 335 334 333 332 331 332 331 332 333 334 333 333 334 333 334 336 336 337 336 336 336 336 336 335 334 332 334 334 332 333 334 334 334 334 334 333 333 332 331 330 329 329 329 328 327 327 327 327 326 326 325 324 323 322 320 317 313 309 306 304 304 304 302 302 301 301
324 323 322 321 322 322 322 322 322 322 321 320 323 325 321 322 327 332 336 335 334 334 333 332 331 331 332 333 333 332 333 335 334 335 337 337 337 337 335 336 337 336 335 334 332 333 332 330 329 331 333 334 334 334 334 334 333 331 329 329 329 329 328 327 327 327 327 327 327 326 326 325 323 322 320 318 314 311 307 305 305 304 303 302 302
326 325 324 324 323 323 323 324 324 324 321 320 326 332 327 322 325 330 334 334 333 334 333 331 330 331 331 332 333 333 333 333 334 336 338 337 337 338 337 337 336 335 334 333 332 333 332 331 330 330 331 332 333 334 334 333 333 331 329 329 329 330 330 329 328 328 327 327 327 327 327 327 325 324 322 320 318 315 312 308 306 306 305 303 302
329 328 327 326 326 325 324 324 324 324 321 317 324 334 332 323 323 329 332 333 333 333 333 330 330 331 330 328 329 332 334 333 332 335 337 337 337 338 338 338 337 336 335 334 334 334 333 334 334 333 332 331 332 333 334 334 333 331 330 330 329 329 330 330 330 329 328 328 328 328 327 328 327 325 324 323 321 318 316 312 308 307 307 306 304
331 330 328 327 327 328 327 326 325 324 323 319 323 334 336 330 330 333 334 334 334 333 332 332 332 331 329 328 327 329 332 332 332 333 335 336 337 337 337 338 338 337 336 335 335 334 334 335 335 335 334 333 332 333 334 334 334 332 331 330 329 330 330 330 330 330 329 329 328 328 327 326 327 326 325 324 323 321 318 315 312 309 308 307 306
330 329 328 326 326 328 331 332 332 332 332 329 328 334 338 338 338 337 336 336 335 334 334 334 334 331 329 328 328 329 330 332 332 332 331 333 335 336 337 338 338 338 337 337 336 335 335 335 334 334 335 334 333 333 334 334 333 332 331 330 330 330 330 330 330 330 329 329 328 327 326 325 326 326 326 325 324 322 320 318 315 313 310 308 307
330 329 328 326 325 327 331 333 335 336 336 336 335 335 337 339 340 339 339 338 336 336 335 335 334 332 329 328 328 330 331 332 333 332 332 333 335 336 338 338 338 338 337 337 336 336 335 334 334 334 335 334 334 334 334 334 333 333 332 330 329 330 330 330 330 330 329 329 328 327 326 325 325 325 325 325 324 323 322 320 318 316 314 311 308
332 331 331 329 326 326 330 332 333 333 333 335 336 337 338 339 339 339 339 339 338 336 335 335 334 332 330 328 328 329 330 332 334 333 333 334 335 337 338 338 338 338 338 338 337 336 335 334 334 334 334 335 334 334 334 334 334 333 333 331 329 329 330 329 329 329 329 329 328 327 326 325 324 325 325 325 324 323 323 322 320 318 317 315 312
332 331 331 330 328 328 331 332 330 329 328 329 329 332 337 339 339 339 339 339 339 337 336 336 335 334 332 330 329 329 330 332 334 334 334 334 335 336 337 338 339 339 339 339 338 337 335 335 334 334 333 333 334 335 334 334 334 334 333 330 328 328 329 329 330 330 329 329 328 327 326 325 324 325 324 324 324 323 323 323 322 320 319 317 316
331 330 328 329 330 332 333 332 330 329 329 329 328 330 335 337 337 339 339 338 338 337 338 337 336 335 333 331 330 330 331 333 335 335 335 335 335 335 336 337 338 339 339 339 339 338 336 335 335 334 333 333 334 335 335 335 335 334 334 331 328 328 329 329 330 330 330 330 329 328 328 327 326 325 324 324 324 323 323 323 323 322 321 320 318
332 331 328 327 329 332 334 332 329 329 330 330 331 333 336 336 337 339 339 338 338 338 337 336 336 337 337 336 335 334 334 336 337 337 336 337 337 336 336 336 337 339 339 339 340 339 337 336 334 334 334 334 335 335 335 336 336 335 335 333 329 328 330 330 330 331 331 330 330 329 329 329 328 327 326 325 325 324 323 323 323 323 322 322 321
331 332 330 328 328 332 335 332 328 328 330 331 332 334 335 335 337 339 340 339 338 338 337 335 334 334 335 337 337 337 337 338 339 340 340 339 339 338 337 335 335 336 338 339 340 339 339 338 336 334 334 335 335 335 336 336 336 337 336 332 329 329 330 330 331 331 331 330 330 330 330 330 330 329 329 328 327 326 325 323 323 322 322 322 322
332 333 332 331 332 333 334 332 330 330 332 333 335 335 335 333 333 335 337 338 337 335 335 334 333 332 332 334 334 332 334 338 339 340 341 340 340 339 338 336 335 336 338 339 339 339 339 338 337 336 335 335 336 336 336 336 337 337 336 334 331 331 331 331 331 331 331 330 330 329 330 330 330 330 330 330 329 329 328 326 324 323 323 323 323
332 333 333 332 333 333 333 332 332 333 335 336 337 337 336 333 331 331 334 335 335 334 334 334 334 335 335 336 333 330 331 335 337 338 339 339 339 339 337 336 336 336 337 338 339 339 338 338 338 338 336 336 336 336 335 336 336 336 336 336 334 333 332 331 331 331 331 331 330 329 330 330 331 331 331 331 331 330 330 329 328 326 324 323 323
332 332 332 331 330 331 332 332 333 334 335 336 336 336 336 334 332 331 333 334 334 334 335 335 335 335 334 333 333 331 331 331 332 335 337 338 338 339 338 337 336 336 336 337 337 338 338 338 339 338 336 336 336 336 335 335 335 335 335 335 335 334 334 332 331 331 331 331 331 330 330 330 330 331 331 331 331 331 331 331 330 329 327 326 324
333 333 333 332 331 331 331 331 332 333 334 334 335 335 336 335 334 332 332 333 333 334 335 335 334 333 331 331 332 333 334 333 333 334 336 338 338 338 338 337 336 337 337 337 337 338 338 338 338 337 336 334 335 335 335 334 334 335 335 336 335 335 334 334 334 334 332 331 331 330 330 330 330 331 332 332 332 332 332 332 331 331 330 328 327
331 332 333 333 333 333 333 332 333 333 334 334 335 335 335 335 335 334 333 331 331 333 334 334 334 333 332 331 330 331 333 333 333 334 336 337 338 338 338 338 337 337 336 336 337 337 338 338 336 336 336 336 335 334 334 333 333 333 334 335 335 335 336 335 335 335 335 334 333 332 331 331 331 331 332 332 332 333 332 332 332 332 331 330 329
330 330 330 330 331 332 333 333 334 334 334 334 334 334 334 334 334 334 334 332 331 332 333 333 333 333 332 331 329 330 331 331 331 331 331 333 335 336 337 338 338 338 338 337 336 337 338 338 337 337 337 337 336 334 334 334 334 333 333 333 333 334 335 336 336 336 336 336 335 334 332 332 331 331 332 332 333 333 333 333 333 332 332 332 331
326 327 328 329 329 330 331 331 332 333 334 334 334 334 334 334 334 333 333 333 332 330 330 331 332 331 331 330 329 330 332 333 331 329 330 331 330 331 334 337 337 337 337 337 337 337 338 338 337 337 337 336 334 333 335 337 336 335 334 333 332 332 333 335 336 335 335 335 336 335 334 333 332 331 331 332 333 333 333 333 333 332 332 332 332
321 322 324 326 327 328 328 329 329 330 331 332 333 333 333 333 333 333 332 332 331 331 330 330 331 331 330 329 329 329 331 332 330 329 330 331 329 329 331 333 334 333 334 335 337 338 338 336 335 336 336 336 333 330 332 337 337 336 334 334 333 332 332 334 335 334 335 336 336 335 335 335 334 333 332 331 332 332 333 333 333 333 333 332 332
320 320 321 321 323 323 324 325 326 327 328 329 330 331 331 331 332 331 331 332 332 331 331 330 330 330 330 330 330 329 330 331 330 330 329 331 332 330 329 330 332 334 336 336 336 336 335 334 333 334 335 336 335 332 333 335 335 334 333 334 334 333 334 335 334 331 332 335 336 336 336 336 336 335 334 332 330 331 332 333 334 333 333 333 332
318 319 319 319 320 320 321 322 323 324 325 327 327 328 329 329 329 329 329 330 331 331 331 330 330 330 330 330 330 329 330 331 331 331 330 331 331 331 330 332 334 335 336 336 335 335 335 334 334 335 336 336 334 331 332 334 334 333 332 333 333 333 333 335 334 330 327 332 336 337 335 335 336 336 335 332 330 330 330 331 331 331 332 332 332
316 316 315 316 317 318 319 319 320 321 323 324 324 325 325 326 326 326 325 326 327 327 327 326 326 326 326 327 328 328 329 329 330 330 330 330 330 331 333 334 334 334 334 335 335 334 334 334 334 335 337 335 330 327 331 333 333 334 334 333 333 333 334 336 336 332 329 332 335 337 336 335 336 337 335 334 332 331 330 330 329 329 330 330 331
315 314 315 315 315 315 316 317 318 319 320 322 322 322 322 322 322 322 321 321 321 321 322 321 321 321 322 322 323 324 324 325 327 328 329 329 330 331 332 333 334 333 333 334 334 334 334 334 334 334 335 334 331 329 330 331 332 334 336 335 334 335 336 336 335 334 334 334 335 336 337 337 336 336 336 334 333 331 330 329 328 328 328 328 329
312 313 314 314 314 314 315 316 317 318 319 320 320 320 321 321 320 320 320 319 319 319 319 320 319 319 320 319 320 320 320 320 321 322 324 326 327 327 328 329 330 330 330 331 331 331 332 332 332 332 333 333 333 332 332 331 332 335 336 335 334 335 336 336 335 336 336 336 335 335 335 335 333 333 333 331 330 330 329 327 326 326 326 326 326
310 311 312 312 313 314 314 314 315 317 318 319 319 319 319 319 319 319 319 319 318 318 318 318 318 319 319 318 318 318 317 317 317 317 318 319 320 321 322 321 321 321 322 323 323 322 323 324 324 324 325 325 326 327 328 328 331 334 335 334 334 335 335 335 334 334 334 335 336 334 334 333 331 331 331 328 327 328 329 327 326 326 325 326 326
310 311 311 311 312 312 312 313 313 314 316 317 317 317 317 316 316 316 316 316 316 316 315 315 315 316 315 315 315 315 315 315 316 318 318 318 319 319 319 317 315 315 315 315 317 317 318 319 319 318 317 316 316 317 317 317 322 326 327 329 332 333 333 333 333 333 333 334 335 335 334 333 331 332 333 331 328 327 328 327 327 326 326 327 327
310 311 311 311 311 311 311 311 312 313 314 315 316 316 315 315 315 315 315 315 314 313 312 313 315 316 317 317 317 318 319 320 320 321 321 321 321 321 320 318 315 313 313 312 313 314 316 317 319 319 319 319 318 319 318 317 318 319 320 323 327 329 329 329 329 328 328 329 331 333 335 335 334 333 334 333 331 330 329 328 326 325 326 327 328
309 309 309 309 310 310 310 310 311 312 313 314 314 315 314 315 315 314 315 314 313 314 314 315 317 318 320 321 321 322 322 322 322 322 322 322 321 320 319 318 315 313 313 313 313 314 314 315 316 318 319 320 321 321 321 321 321 322 323 324 325 326 327 329 328 325 323 321 322 326 331 334 333 333 335 335 333 332 331 330 327 325 325 326 326
308 308 308 308 308 309 309 309 310 310 311 312 313 313 313 313 313 313 313 312 313 315 317 318 318 319 320 321 321 321 321 321 322 322 321 320 318 317 316 315 314 314 314 314 314 314 314 314 315 315 316 317 318 319 320 321 323 325 327 327 326 326 327 328 328 327 325 324 321 320 326 331 331 332 334 335 334 334 333 332 330 329 329 327 326
307 307 308 308 308 308 309 309 309 310 310 311 311 311 312 312 311 311 311 311 312 314 316 317 317 319 320 320 321 321 321 321 321 320 319 318 316 316 315 315 315 315 314 314 314 314 315 315 315 315 315 315 316 316 317 319 320 322 325 327 328 328 328 328 328 328 329 329 326 323 325 329 330 331 332 333 335 335 334 333 332 331 332 330 328
Wind_Speed
17 16 17 18 18 18 17 15 14 13 13 12 10 10 11 10 11 10 9 8 9 8 7 7 8 7 5 5 5 6 5 4 5 4 6 10 10 7 7 7 6 6 5 4 4 5 5 4 4 5 5 5 4 4 5 5 4 5 5 5 5 5 5 6 5 6 6 6 7 7 7 7 8 9 10 11 12 13 12 12 11 11 11 12 13
16 16 16 17 16 16 16 13 12 12 12 11 11 10 11 11 10 9 9 8 7 8 7 6 7 6 3 4 5 4 4 6 5 4 6 9 8 7 7 7 7 6 5 3 4 5 4 4 4 4 4 3 4 4 4 4 4 5 5 4 4 4 4 5 5 5 5 5 5 5 6 6 7 8 9 10 11 11 11 11 10 10 10 11 12
15 16 16 16 15 15 15 13 12 12 11 11 12 12 12 12 10 9 9 7 7 7 7 6 5 5 4 4 4 3 4 6 5 2 4 6 7 8 9 8 9 8 7 4 4 5 4 4 4 4 2 1 4 4 3 3 3 4 4 4 4 4 4 4 5 4 3 3 3 4 5 5 6 7 7 9 9 10 10 10 10 10 10 10 11
15 14 17 17 15 16 15 13 12 11 11 11 12 12 12 12 11 10 9 7 7 6 7 7 3 4 5 5 3 2 4 5 4 1 3 5 6 8 8 9 10 10 9 7 5 5 3 3 3 4 2 1 3 3 3 4 3 3 4 4 4 4 4 3 4 4 3 2 2 3 4 4 5 5 6 7 8 9 9 10 10 9 10 9 10
17 15 17 17 17 18 16 15 13 12 12 11 12 10 10 11 10 10 9 7 7 6 7 6 3 3 5 5 3 2 3 4 4 1 3 5 6 6 8 10 10 10 10 9 7 6 5 3 3 4 2 2 2 2 3 3 3 3 4 4 4 4 4 4 4 4 3 2 2 3 3 3 4 4 5 6 7 8 8 8 9 9 9 9 9
19 17 17 16 17 17 16 16 14 14 13 12 13 11 10 10 9 9 8 7 6 5 7 6 4 4 4 4 4 4 3 2 4 3 1 2 5 6 6 6 7 8 9 9 8 7 6 5 3 4 3 2 1 1 1 1 1 3 3 4 4 4 4 4 5 4 4 3 2 2 2 2 3 3 4 5 6 6 7 7 8 9 9 8 8
21 18 18 17 17 16 13 14 14 14 13 12 12 11 10 9 8 7 7 8 4 3 6 5 4 4 3 4 4 4 4 2 2 2 1 1 3 4 3 4 3 3 5 7 7 6 6 6 5 5 4 3 3 2 2 1 1 1 2 3 4 4 4 4 5 5 5 4 3 3 2 2 2 2 3 4 4 5 5 6 7 8 8 8 7
23 20 18 18 18 17 14 13 13 14 13 12 10 8 9 9 7 5 6 8 5 3 5 4 5 6 4 4 5 5 5 3 2 2 2 2 2 2 2 2 2 3 2 2 3 3 4 5 5 6 5 4 3 3 2 2 2 0 1 2 3 4 4 4 3 5 6 5 4 4 3 2 2 2 2 2 3 3 4 5 5 6 7 7 7
23 21 18 16 17 17 15 14 15 14 12 12 11 7 7 8 8 6 5 7 5 3 4 3 4 6 5 3 5 4 6 5 3 4 4 3 2 4 3 1 1 2 4 4 2 2 2 4 3 4 4 4 4 4 3 2 2 1 0 2 3 3 4 4 4 3 4 5 5 5 4 3 2 2 2 2 2 2 2 3 4 5 6 7 6
23 21 18 15 14 14 15 15 15 14 13 12 12 9 8 7 8 8 6 6 5 3 4 3 3 5 4 5 6 2 4 5 4 5 5 4 5 6 4 4 5 4 4 6 5 2 0 1 1 1 2 3 4 4 4 3 3 2 1 1 2 2 3 3 4 3 3 5 5 6 5 4 3 3 3 2 2 2 1 2 3 3 5 6 6
22 22 20 17 13 13 14 15 15 15 13 12 12 11 10 9 9 9 8 8 7 5 5 6 7 6 5 7 7 4 4 5 4 5 5 6 7 7 7 7 6 6 4 4 6 6 4 2 2 1 1 1 3 4 4 4 3 3 3 2 2 2 3 3 3 3 3 4 5 6 5 4 4 3 3 3 3 3 2 1 1 2 3 5 5
22 23 21 20 17 14 15 15 14 15 13 13 12 11 12 11 9 9 9 9 9 8 6 9 9 7 7 8 9 6 5 6 6 5 5 7 8 9 9 8 6 7 7 5 6 8 6 3 4 4 3 2 1 3 3 3 3 4 4 4 3 3 3 4 3 3 3 3 4 5 5 5 5 4 4 4 4 4 3 2 1 0 2 3 4
22 22 20 21 20 16 16 16 14 15 13 12 11 11 12 11 10 9 9 9 10 10 7 8 8 8 8 9 9 9 7 7 8 8 7 8 9 9 10 10 8 9 9 8 9 10 9 6 6 5 2 2 1 2 3 2 3 4 4 4 4 4 3 3 3 3 3 3 4 5 5 5 5 5 5 5 5 5 5 4 2 2 1 1 2
23 21 20 21 21 18 16 17 15 15 14 11 11 11 12 12 11 9 9 9 10 10 9 9 9 9 9 7 7 9 8 8 9 10 10 9 10 10 10 11 11 10 10 10 11 12 11 10 9 6 5 5 4 4 5 3 4 4 4 4 3 3 3 3 2 3 4 4 4 5 5 5 5 5 6 6 6 6 6 5 4 3 2 1 1
22 22 21 21 22 19 17 17 15 14 14 12 11 12 13 14 13 10 9 8 9 10 10 12 11 9 9 8 7 7 9 10 11 11 12 12 12 12 11 12 12 12 12 10 11 12 13 12 11 7 8 10 8 7 7 6 5 5 4 4 4 3 2 3 3 2 3 3 4 4 5 5 5 6 6 6 7 7 6 6 5 5 4 3 1
23 23 21 21 21 20 19 18 16 14 13 13 13 13 13 14 14 11 9 8 8 9 8 12 14 10 9 9 8 8 9 10 10 10 11 12 13 12 12 12 12 14 15 13 11 12 13 14 13 10 11 13 11 9 9 7 7 6 5 6 5 5 4 3 3 3 3 3 3 4 4 5 5 6 7 7 7 7 7 7 7 6 6 5 3
21 21 21 20 20 20 20 19 19 16 14 15 15 14 13 13 14 13 11 9 8 8 8 10 13 12 11 10 8 7 8 6 6 7 8 10 11 12 13 12 11 14 16 15 12 13 15 16 16 14 14 15 14 13 12 9 8 7 7 7 7 6 6 6 5 5 4 4 4 4 4 4 5 6 7 7 7 7 8 8 8 7 7 6 5
18 19 18 19 19 19 19 19 19 18 16 15 16 15 13 12 13 13 12 10 9 9 9 10 13 14 13 13 13 10 8 6 6 7 8 9 9 11 12 12 12 13 15 15 14 15 17 17 17 17 17 18 17 16 15 13 11 9 7 7 8 8 9 8 7 7 6 6 5 5 5 5 5 6 7 7 8 8 8 9 9 9 8 8 7
19 18 17 17 18 18 17 17 17 18 18 17 17 16 14 14 14 13 11 8 8 10 11 10 12 14 14 13 15 16 14 12 11 9 9 10 10 10 11 12 13 14 15 15 15 15 16 16 18 17 17 18 19 18 18 17 14 12 8 7 8 9 10 10 9 8 8 8 7 7 7 7 7 7 7 7 8 9 9 9 10 9 9 9 8
19 19 19 19 19 18 17 17 17 18 18 18 18 17 16 15 15 15 12 9 9 10 12 14 14 14 14 12 12 15 16 16 15 14 13 13 12 12 13 14 16 16 16 16 15 16 17 17 18 19 19 19 19 19 18 18 16 14 10 7 8 9 11 12 11 10 10 10 9 10 10 9 9 9 8 8 9 9 10 10 10 10 10 10 10
19 19 19 19 19 19 18 18 18 18 18 18 18 17 17 18 16 16 15 12 12 11 13 16 17 16 14 14 13 12 13 15 16 16 16 16 15 14 15 15 17 18 17 16 16 17 19 18 17 19 20 20 20 19 18 18 16 15 12 7 6 8 10 12 13 12 12 11 11 12 12 12 12 11 10 10 10 10 11 11 10 11 11 11 10
19 19 19 19 19 19 19 18 18 17 16 16 17 16 16 19 19 18 16 15 15 14 13 15 16 17 16 16 16 14 13 13 14 14 15 17 17 17 15 15 18 18 17 16 15 16 19 19 18 18 20 22 22 20 19 19 17 15 13 8 6 7 9 10 12 13 13 13 13 13 14 14 14 13 13 13 12 11 12 12 11 11 12 12 12
19 19 19 19 19 20 19 18 17 16 16 15 16 16 15 18 21 21 18 17 16 15 16 16 16 18 17 17 18 17 15 13 13 14 15 16 18 17 15 14 16 18 18 17 16 17 18 19 20 18 19 22 23 21 20 19 18 16 14 11 8 8 9 10 11 12 13 15 15 14 15 15 15 15 15 16 15 13 13 13 13 12 12 13 13
19 20 20 19 19 20 19 18 18 17 16 15 17 18 17 17 21 22 20 18 17 17 18 18 18 19 18 17 18 20 18 16 14 15 16 16 16 18 17 15 15 17 17 16 15 16 18 19 20 20 19 20 22 22 21 20 19 18 16 13 10 8 10 11 11 12 14 15 16 16 16 16 16 16 16 17 17 16 13 13 14 13 13 13 13
21 22 20 19 19 20 20 19 18 18 16 15 18 21 20 18 19 21 20 19 19 19 19 18 19 20 19 18 18 20 20 19 18 18 18 18 17 19 19 17 16 16 16 16 15 16 17 19 20 20 19 19 19 21 21 22 23 21 18 16 12 10 11 12 13 13 14 15 17 17 17 16 16 17 16 17 18 17 15 14 14 15 15 14 14
21 20 18 16 16 19 21 20 18 17 17 16 17 20 20 20 19 20 20 20 20 20 20 19 20 21 20 20 20 21 21 20 20 20 19 20 20 20 20 18 18 18 17 16 17 18 19 20 20 20 21 19 18 19 20 21 24 23 21 18 15 13 12 12 14 14 15 16 17 17 17 15 16 17 16 16 18 18 17 17 15 15 16 16 15
17 16 15 16 17 19 21 22 19 18 17 17 18 19 20 21 21 21 21 21 21 21 21 20 21 22 22 22 22 22 22 21 21 21 19 20 21 20 19 19 18 18 18 17 17 20 21 21 20 20 21 20 18 20 21 22 22 22 22 21 19 15 13 13 13 14 15 15 16 17 17 16 16 16 15 16 17 18 18 19 18 17 17 18 17
15 14 13 15 18 20 20 20 19 18 18 18 18 19 20 21 22 23 22 21 22 23 22 22 22 23 23 24 24 24 24 23 23 22 21 20 20 20 20 20 19 19 18 18 18 19 19 19 20 20 21 20 18 20 23 25 23 22 23 23 20 17 15 14 14 14 14 14 15 16 17 17 16 15 15 16 16 18 19 21 20 19 19 19 19
16 16 14 13 16 20 20 19 18 18 18 18 18 19 20 22 23 24 24 23 23 23 24 24 23 23 24 25 26 26 26 24 24 24 23 22 22 22 23 22 21 21 20 20 20 19 17 17 18 19 22 23 21 21 23 25 25 24 23 23 20 18 16 15 15 14 14 14 14 15 16 16 16 16 16 16 16 18 19 20 21 21 21 21 21
18 18 17 15 16 19 19 19 19 20 20 19 20 20 21 23 24 25 26 24 23 24 25 24 24 24 26 27 28 28 27 25 25 25 24 24 23 22 23 22 22 23 23 22 22 21 18 18 19 17 18 22 24 23 23 26 26 24 24 23 21 19 18 17 17 16 15 15 15 15 15 16 16 16 16 15 17 18 19 21 21 22 22 23 23
19 20 21 20 20 20 21 21 22 23 22 21 22 22 21 22 24 26 27 25 22 22 23 23 23 24 25 26 27 27 28 27 26 25 25 24 23 21 21 21 22 23 23 24 25 25 20 18 20 18 14 17 21 23 23 25 27 26 24 24 23 21 20 20 19 19 18 17 17 17 16 17 17 16 16 16 16 18 19 21 22 23 23 23 23
21 23 24 24 24 24 23 23 23 24 24 23 23 22 22 23 24 25 27 25 23 22 22 23 23 23 24 25 25 26 28 27 27 26 25 24 23 23 22 21 21 22 23 24 27 29 24 19 19 19 16 15 18 22 24 25 27 26 23 22 22 23 23 23 22 22 21 20 19 19 18 19 18 18 18 17 17 18 18 20 21 22 23 22 22
20 23 26 25 24 25 26 26 25 25 26 25 23 21 22 25 26 27 27 26 25 24 24 23 23 24 25 26 26 27 28 28 28 27 26 24 23 24 23 21 21 22 23 25 28 30 28 23 20 19 19 17 17 20 23 25 26 26 24 23 22 23 25 26 25 25 24 23 21 21 21 21 20 20 20 20 19 19 19 19 20 21 22 22 22
20 21 24 24 21 23 25 26 26 26 25 24 22 20 21 23 26 27 27 26 27 27 25 24 24 24 25 26 27 28 27 27 30 30 28 25 23 23 23 22 22 24 24 25 27 28 28 25 22 21 20 19 19 20 21 23 26 28 29 28 26 27 28 29 29 28 27 27 25 23 23 23 23 22 22 22 22 22 21 21 21 21 22 22 22
18 18 19 20 20 21 23 23 23 22 21 21 20 19 19 21 23 24 25 25 26 26 25 24 24 23 23 25 27 28 27 26 29 31 29 26 24 24 24 23 23 24 24 25 26 28 29 27 24 22 20 19 21 22 22 24 26 29 32 32 31 31 32 31 30 29 29 30 30 28 26 25 25 25 24 24 24 24 24 23 23 23 23 23 23
9 11 14 16 17 17 18 19 18 18 18 18 19 19 19 20 21 23 23 22 23 25 24 24 24 23 23 24 25 26 25 26 28 29 28 28 27 27 27 26 25 26 25 25 26 28 28 27 26 25 23 22 23 23 24 25 25 24 27 30 31 32 33 33 33 31 30 29 31 32 31 28 28 28 27 27 27 27 27 26 26 26 26 25 25
2 4 6 9 11 13 14 15 16 17 17 17 18 19 19 19 19 20 21 20 22 23 23 23 24 24 24 24 24 24 25 27 28 28 29 30 30 30 30 29 28 28 27 26 27 28 29 29 29 28 27 26 26 24 23 25 27 26 25 26 28 29 31 33 34 34 32 28 26 28 31 32 31 30 30 30 30 30 30 30 29 29 28 28 28
4 1 2 3 4 6 9 11 12 14 15 16 16 16 16 17 18 18 18 18 20 21 21 21 21 22 23 24 25 25 25 27 28 29 31 33 32 31 31 31 31 29 27 25 25 25 26 28 30 30 30 28 28 27 26 26 29 30 28 27 28 29 30 31 32 33 33 31 27 24 26 30 32 33 33 33 33 33 33 33 33 32 31 32 31
5 4 3 1 1 2 2 4 7 9 11 13 13 13 15 16 17 17 17 17 19 21 21 21 21 21 22 23 24 26 26 27 28 29 31 32 31 29 30 32 32 30 27 27 27 26 24 25 27 31 31 30 29 30 31 30 30 31 31 32 32 31 31 32 32 32 33 34 33 29 27 26 28 31 34 35 36 37 36 36 36 35 34 34 34
8 8 7 7 7 5 3 2 3 5 8 10 12 13 14 16 16 17 17 18 19 20 20 21 21 22 22 23 24 25 26 26 27 28 29 29 29 29 30 31 32 31 30 29 29 30 30 29 30 32 34 33 31 33 34 33 32 32 32 34 35 35 33 33 33 32 33 36 37 36 34 31 29 29 32 35 38 39 40 39 39 40 39 38 37
9 11 12 12 11 10 8 6 4 4 5 7 9 11 12 14 15 15 15 16 17 18 20 21 21 22 22 22 23 24 24 24 24 26 27 27 27 29 31 31 32 33 32 30 30 32 33 33 34 36 38 36 33 34 36 36 35 33 33 35 37 37 36 35 35 33 34 36 38 39 38 37 35 32 31 32 35 38 40 42 42 43 42 41 40
9 12 15 15 14 13 12 11 10 8 7 8 10 12 13 14 15 15 15 16 16 17 19 20 20 20 21 21 22 23 23 23 23 24 25 25 26 28 30 29 30 31 32 31 31 31 31 31 33 35 37 37 35 35 37 37 35 33 33 35 37 38 38 39 38 36 35 37 40 40 39 40 38 34 32 30 30 32 36 39 42 44 44 44 43
9 11 12 13 14 14 14 14 13 12 11 12 14 15 17 17 17 18 17 18 18 19 19 20 21 21 20 20 20 20 21 21 21 22 24 25 26 27 27 26 26 28 29 30 31 30 31 32 34 35 36 36 36 37 36 35 35 35 35 36 36 37 39 40 41 39 36 38 42 41 39 39 39 36 34 31 28 28 29 30 33 37 41 44 45
9 9 8 9 10 11 11 11 12 12 12 14 15 17 20 21 22 22 22 22 23 22 23 23 23 23 23 23 23 22 22 22 21 21 23 24 23 23 22 22 22 23 24 26 28 28 29 31 32 34 35 36 37 38 37 36 36 37 37 36 35 36 37 39 41 40 36 36 39 40 38 38 38 38 38 34 31 30 30 28 28 29 33 37 40
10 9 8 9 8 9 10 10 9 8 8 12 15 17 20 22 24 25 26 27 27 27 27 27 27 27 26 26 26 26 25 25 24 24 24 24 24 24 23 23 23 23 23 25 26 27 29 30 30 31 33 34 36 38 39 39 39 38 37 36 37 37 37 37 37 37 36 35 34 34 36 36 35 37 40 39 38 37 36 35 34 33 33 33 35
11 11 11 11 9 10 12 13 12 9 6 9 13 16 19 21 24 26 27 29 30 31 31 30 30 30 30 29 30 30 29 28 28 28 27 27 27 27 27 28 28 28 27 28 29 30 31 32 33 34 34 34 35 37 38 39 41 41 40 40 40 40 40 41 40 38 39 38 35 34 36 36 35 37 41 43 43 42 41 39 37 36 37 35 34
12 12 12 11 11 12 12 12 11 9 8 9 11 13 16 18 21 23 25 26 28 29 29 28 27 27 28 28 28 28 27 25 24 24 24 24 25 24 25 27 28 27 27 27 27 28 28 30 33 35 37 37 37 37 38 39 41 42 42 43 44 43 44 45 44 42 40 39 37 35 36 37 37 40 43 45 45 45 44 41 39 40 41 40 38
11 11 10 9 9 10 10 9 8 6 7 10 12 14 16 18 19 21 22 23 23 21 19 17 16 17 18 18 18 18 17 17 18 19 19 20 22 23 24 26 27 28 28 27 27 28 29 30 32 33 35 36 36 37 37 37 39 40 40 41 43 44 46 47 46 46 45 42 41 40 40 39 39 41 44 45 46 47 47 44 43 44 43 42 41
9 9 8 8 8 8 8 8 6 6 9 12 13 15 17 19 19 20 21 22 17 11 10 10 10 10 10 11 12 13 13 16 18 19 20 22 24 26 28 29 30 31 31 30 31 32 33 34 34 35 35 36 36 37 37 37 37 36 38 41 42 42 45 46 46 48 48 46 44 42 43 45 44 44 46 47 47 49 48 48 48 48 46 45 44
10 10 9 9 9 9 8 9 9 9 8 9 12 14 17 18 18 19 20 19 11 6 7 7 7 7 7 8 11 13 15 17 19 21 23 25 27 29 30 32 33 34 34 34 36 36 37 37 38 38 39 39 40 40 39 39 37 35 36 40 40 40 44 46 47 48 49 49 46 43 45 49 48 48 49 48 48 49 49 49 50 49 49 49 48
9 10 10 10 10 11 11 11 11 12 11 9 9 11 13 15 15 16 17 15 9 6 8 11 11 11 11 12 13 14 16 17 19 22 25 27 29 31 33 36 37 38 37 37 38 39 39 40 41 42 43 43 44 45 44 43 42 39 39 39 38 38 43 46 46 46 47 48 46 42 44 48 48 49 51 49 48 49 48 48 50 50 50 50 50
Wind_Direction
161 156 157 156 153 150 153 154 150 152 143 133 136 127 121 121 112 116 125 123 125 120 103 99 96 95 92 76 80 116 131 89 61 54 63 65 62 65 73 88 105 106 112 116 109 115 116 121 128 125 121 123 126 118 119 119 123 128 121 120 118 121 125 117 105 95 88 81 81 81 74 74 75 73 68 65 60 54 52 51 53 58 57 60 65
163 159 159 156 154 155 158 163 161 157 151 144 143 137 131 128 127 131 133 132 130 121 108 103 111 116 107 77 75 81 90 91 72 36 50 58 59 73 72 73 79 78 90 114 128 129 136 142 144 149 141 144 154 133 128 135 137 142 137 132 129 127 127 127 120 102 92 78 74 78 73 74 75 73 70 66 64 58 53 51 56 62 62 63 66
163 160 158 155 157 154 159 170 169 162 160 157 150 149 143 137 141 138 140 145 133 124 117 112 108 112 112 89 88 76 69 94 102 46 31 47 58 74 76 74 73 65 58 69 121 131 136 146 145 149 139 161 173 157 144 150 152 153 152 152 153 145 133 133 135 120 102 90 83 83 80 79 75 75 74 70 67 61 55 53 56 65 68 66 66
166 166 163 158 160 154 161 171 170 166 164 160 148 148 147 144 151 149 153 149 134 133 113 110 109 107 119 113 104 82 77 95 112 82 11 30 43 63 83 86 79 73 63 57 82 106 114 132 140 148 155 151 159 167 162 166 180 168 160 166 168 165 162 151 147 145 128 108 98 94 88 85 80 80 78 74 71 64 58 53 55 64 70 69 66
168 178 171 164 166 160 165 169 170 169 164 161 148 147 152 151 155 151 152 144 141 141 118 129 153 128 131 134 129 115 106 104 119 164 351 20 23 38 79 91 86 78 70 63 64 69 67 79 113 128 145 158 161 170 167 185 209 194 186 181 180 183 188 181 166 163 159 144 114 104 95 92 89 89 85 79 74 67 62 55 55 62 69 73 70
170 181 173 170 171 162 168 167 169 171 166 165 155 158 162 154 148 142 142 140 147 143 133 153 161 148 151 139 139 147 162 132 143 200 299 17 8 21 52 68 84 87 76 66 57 56 51 46 65 87 90 98 123 124 154 210 217 200 208 206 202 197 198 198 185 177 172 170 156 124 108 100 98 99 92 85 80 71 66 59 56 61 68 75 75
173 179 171 174 170 161 168 166 171 172 168 166 159 163 157 145 143 140 140 140 152 149 146 160 150 170 180 143 157 159 167 184 171 208 264 272 339 20 35 18 37 79 81 69 53 51 51 44 43 55 65 68 91 89 84 109 116 200 228 221 218 212 214 215 198 187 181 180 178 161 134 120 115 110 101 92 89 74 70 64 56 60 66 74 78
177 175 173 180 172 165 169 170 178 172 168 164 154 155 148 146 149 147 144 143 163 173 163 166 153 195 218 167 190 178 163 199 220 198 232 261 308 338 343 357 355 340 335 46 56 57 52 50 41 42 48 51 73 76 69 78 77 73 259 235 220 215 220 233 224 199 192 194 193 189 178 156 143 135 126 111 105 86 74 69 60 60 63 70 78
184 175 169 180 178 172 173 178 180 169 170 165 150 159 166 163 161 164 163 149 161 174 181 201 179 211 231 196 216 194 167 198 220 194 223 255 239 262 288 286 269 289 282 299 300 163 81 55 43 37 40 39 55 60 53 54 51 52 281 247 229 219 211 225 244 226 208 213 214 207 200 185 174 163 167 161 139 117 89 80 66 61 62 66 73
191 182 168 172 182 180 181 186 182 175 178 172 160 172 187 185 176 175 170 152 159 197 217 220 213 230 230 225 244 236 185 214 225 203 220 230 214 237 249 239 260 268 265 294 300 280 292 73 63 59 57 42 47 48 37 27 9 347 309 263 237 224 201 208 232 242 232 230 228 220 208 199 194 183 190 200 181 168 144 104 76 64 62 62 65
196 191 175 166 177 192 197 193 189 186 184 181 175 174 189 204 197 187 178 167 167 197 237 220 213 232 234 246 262 255 225 244 252 229 226 219 216 230 232 230 246 259 266 281 290 303 300 240 235 254 220 27 35 38 24 11 353 324 303 282 248 224 203 200 211 229 239 236 230 221 212 208 203 200 203 213 208 200 203 172 105 71 63 61 62
203 199 187 174 172 190 209 206 204 202 190 189 189 180 193 213 216 208 200 192 180 180 232 244 232 231 233 248 266 268 247 252 266 259 242 230 226 226 231 239 235 234 251 263 272 290 299 273 252 250 222 205 17 16 4 353 339 318 301 288 265 240 214 199 196 196 217 232 228 220 216 213 211 212 211 218 221 212 214 214 194 137 73 66 62
211 207 199 190 179 182 209 216 213 213 205 198 199 193 202 221 231 231 228 225 211 190 206 251 245 233 240 247 261 277 276 261 266 266 257 249 244 233 226 238 241 230 234 245 258 274 293 295 273 273 255 206 262 314 313 318 316 311 299 290 276 257 239 208 192 178 181 201 216 220 220 219 220 223 220 222 224 220 221 222 223 234 200 91 65
213 212 204 202 195 189 207 220 214 212 217 214 211 201 203 225 240 246 249 248 242 220 205 228 237 233 249 260 260 274 284 278 274 269 263 257 251 247 233 230 239 238 231 230 239 255 276 287 289 298 285 271 280 280 282 288 300 308 290 277 273 264 257 237 212 184 176 178 197 214 221 225 230 232 230 226 227 227 226 225 228 237 234 220 97
211 215 208 206 206 201 207 221 221 214 219 225 227 216 208 224 243 257 258 253 257 250 221 218 231 237 244 255 255 260 273 280 282 274 267 261 253 253 246 234 232 236 238 232 225 236 252 265 280 282 257 267 278 269 274 275 277 294 282 268 269 269 271 259 253 231 201 179 184 201 215 228 237 240 239 232 229 231 230 229 231 238 241 237 227
210 216 214 211 211 212 215 225 233 228 226 230 234 233 225 227 241 253 252 242 247 262 249 225 227 232 239 252 255 249 258 279 294 283 267 259 255 254 250 242 229 227 236 238 231 233 239 246 260 264 255 268 277 272 278 276 264 267 259 260 263 266 278 272 266 262 245 219 200 202 213 223 233 241 243 239 233 233 234 233 232 237 242 241 239
212 218 221 221 219 221 224 229 238 241 237 234 234 237 239 234 239 245 245 241 233 239 255 249 240 237 238 246 255 259 258 271 295 284 272 264 259 255 250 246 236 228 232 235 232 235 240 241 248 253 255 264 273 276 283 283 274 264 249 252 257 257 266 268 265 264 261 250 234 227 226 227 231 237 245 245 241 237 237 237 234 235 242 243 243
210 216 220 226 227 226 229 231 235 241 241 235 232 233 236 233 233 241 241 239 232 220 228 255 261 258 255 244 240 250 259 270 284 278 274 269 263 258 253 253 253 243 238 236 230 233 240 241 244 249 251 257 267 274 280 285 289 284 262 252 257 257 258 261 264 262 261 257 250 246 242 241 238 237 242 247 249 247 242 240 238 234 239 244 245
210 211 211 220 229 227 228 232 233 238 241 238 235 233 231 223 223 235 239 229 226 214 205 228 252 263 272 263 244 244 249 261 271 271 269 265 262 260 251 251 256 257 253 247 239 236 240 241 243 249 250 253 261 267 271 277 282 286 280 259 257 259 255 256 261 260 259 255 251 252 249 245 245 241 241 243 247 251 249 245 242 238 237 242 246
208 208 206 215 228 229 226 230 233 237 243 246 245 239 231 223 220 226 229 220 220 213 201 209 225 240 255 261 253 250 251 251 252 254 261 263 262 258 254 250 247 253 260 255 246 241 244 244 241 246 250 252 257 260 264 269 269 273 279 269 257 258 254 253 255 257 260 258 253 253 252 249 246 243 241 240 240 244 248 248 245 241 239 240 245
206 209 209 215 229 236 233 232 234 236 243 249 251 245 231 225 226 224 223 221 223 222 212 212 220 228 233 236 235 238 246 250 249 249 253 257 258 255 257 251 240 244 255 258 252 243 245 250 244 242 246 250 253 255 258 261 262 269 280 278 255 250 250 248 249 252 257 259 255 253 254 253 249 246 242 239 239 239 242 247 246 244 242 241 244
206 210 213 218 225 234 236 237 238 237 241 244 245 246 234 223 225 226 223 226 229 230 227 222 226 234 236 239 238 231 229 237 246 250 248 251 254 255 257 251 243 251 260 263 264 254 247 249 250 246 243 244 249 254 254 253 257 268 281 282 253 240 245 246 248 252 256 258 259 257 254 253 251 249 246 242 240 238 235 239 244 245 244 243 243
209 210 214 219 225 231 235 236 239 240 240 236 229 236 237 223 223 228 226 227 232 234 235 233 233 238 238 241 247 246 239 234 238 245 246 248 251 255 258 254 253 262 268 272 275 266 251 245 249 253 249 245 246 248 249 249 252 261 274 280 265 246 248 252 254 255 257 259 262 264 262 260 256 251 248 244 241 240 234 232 237 243 245 245 245
211 210 211 216 223 231 235 235 237 240 240 232 216 221 232 226 222 228 229 230 234 237 241 242 241 241 239 239 245 247 245 242 239 241 246 253 257 257 257 256 256 258 265 274 273 262 252 245 247 254 256 252 247 246 247 247 250 257 265 271 273 261 255 258 261 259 260 262 264 268 267 265 263 258 252 246 242 243 239 230 230 238 244 245 246
217 215 214 216 221 228 234 236 237 238 238 230 212 210 224 230 225 226 230 234 237 240 244 247 247 247 244 243 244 246 245 244 242 241 243 248 252 257 260 259 256 253 256 266 268 261 254 249 249 254 257 256 251 245 241 242 249 254 257 261 268 268 262 259 261 261 261 262 265 268 268 267 267 265 260 254 248 244 240 233 227 233 241 244 246
222 224 225 226 227 228 230 231 231 231 234 235 222 212 218 228 231 231 232 234 238 242 245 245 246 249 248 245 244 246 248 246 244 244 244 243 243 249 257 257 256 257 254 256 260 260 257 254 254 255 255 256 254 246 238 239 246 251 253 257 261 261 260 258 258 259 260 261 263 266 267 267 264 263 263 259 254 246 241 238 230 229 237 240 243
228 232 236 238 238 233 228 227 226 224 226 232 232 226 224 228 232 235 235 237 239 242 244 244 246 248 247 246 245 245 248 247 245 246 245 244 245 247 251 254 257 259 257 253 250 253 258 260 261 258 253 254 251 246 246 248 250 251 252 255 257 255 253 253 253 255 256 256 258 261 263 263 260 259 260 257 255 250 246 245 239 232 235 238 240
233 237 240 242 243 241 236 234 231 227 227 231 236 237 236 236 237 238 238 239 242 245 247 247 249 250 249 248 245 244 246 246 246 245 243 242 245 247 246 248 253 258 260 257 248 245 248 253 260 260 255 253 248 242 246 251 253 253 251 252 252 249 245 245 248 251 252 252 253 254 257 259 258 257 255 252 250 248 246 247 246 240 236 238 240
233 239 243 244 242 240 240 239 236 235 235 237 241 243 242 243 244 243 241 240 244 249 251 250 250 251 252 251 248 247 247 246 245 245 242 240 242 245 246 245 247 251 256 258 253 247 242 242 250 257 257 255 246 239 241 246 251 253 253 252 248 243 241 240 243 247 249 249 249 250 252 256 258 257 254 250 247 246 244 245 248 247 241 239 240
233 238 243 244 241 239 239 237 233 235 238 238 242 244 243 246 247 247 245 242 243 249 252 254 256 258 258 256 252 251 250 247 245 245 242 240 242 246 249 247 246 247 251 257 260 254 245 240 238 241 255 255 244 239 241 243 248 253 256 256 248 241 238 237 239 244 248 249 247 246 249 253 256 257 256 253 248 247 246 245 248 250 248 244 242
237 235 236 237 238 239 241 237 232 235 239 241 245 247 247 247 248 250 250 246 243 246 251 254 257 260 263 263 259 257 254 249 245 244 242 239 239 244 247 247 247 248 249 256 261 259 253 251 244 236 240 248 242 240 241 242 247 254 258 256 247 241 239 235 237 240 243 247 248 247 246 249 253 256 258 258 254 251 250 248 248 249 251 251 248
241 239 236 235 236 239 242 240 237 239 242 245 249 252 252 252 252 254 255 253 249 248 253 256 257 257 261 265 264 262 260 256 249 245 242 239 236 240 245 246 245 246 250 252 257 259 257 254 254 247 239 246 250 246 244 247 252 255 258 255 245 241 241 237 236 239 241 244 247 248 248 247 249 253 255 256 256 256 255 253 251 250 250 253 254
238 240 240 239 239 240 242 241 241 244 247 250 252 255 255 255 256 257 258 259 256 255 257 260 260 259 258 259 260 260 263 264 261 253 247 241 237 239 244 245 243 243 248 251 254 260 260 256 255 253 244 244 250 248 247 252 256 257 260 260 251 247 248 244 240 241 242 244 246 248 249 248 248 249 251 253 255 255 256 257 257 255 253 253 254
234 238 242 242 239 238 241 243 245 247 249 250 252 257 261 259 257 258 260 261 260 260 261 261 261 261 260 260 260 260 261 267 270 265 257 249 244 243 244 247 248 244 243 247 252 258 262 261 257 256 254 251 250 252 253 256 261 262 261 260 257 258 260 254 248 246 245 245 247 248 249 249 248 248 249 250 253 254 255 256 257 259 258 255 254
230 231 234 234 232 233 237 240 245 248 250 252 254 258 262 262 258 257 259 259 261 263 263 262 261 262 265 267 267 265 265 268 271 270 265 259 252 247 244 246 252 253 249 248 250 254 259 262 260 258 259 255 251 253 255 257 264 268 263 261 262 265 266 262 258 257 252 247 247 248 247 248 248 248 249 249 250 252 254 254 255 256 258 257 256
238 231 222 216 218 227 235 238 242 248 252 256 256 254 254 256 255 253 254 255 260 265 266 265 265 265 268 272 274 275 276 275 272 271 269 265 261 253 244 240 244 248 251 253 253 254 257 262 263 260 257 251 245 246 249 251 257 266 265 261 261 265 268 269 270 268 262 253 249 247 246 246 247 248 248 249 250 251 252 253 253 253 255 256 256
251 260 238 223 214 217 227 233 236 241 245 248 249 249 251 252 251 251 252 253 256 261 265 269 270 269 270 274 277 279 278 275 274 276 276 275 273 265 254 247 244 244 248 254 256 255 255 259 262 263 261 258 254 254 255 254 253 257 260 257 256 258 263 269 271 271 269 265 258 252 248 246 247 248 248 249 250 251 252 254 254 253 253 254 254
196 162 21 336 272 231 232 238 237 237 240 244 248 253 255 255 257 257 256 256 257 258 262 267 269 269 269 272 276 277 276 273 274 277 280 282 280 277 274 268 258 251 249 249 252 256 257 259 263 266 266 263 260 258 257 257 256 256 259 261 259 255 256 259 260 261 265 268 267 263 257 251 249 249 250 250 250 251 252 253 254 254 253 253 253
240 218 167 146 246 227 243 261 263 261 255 252 253 258 260 260 262 263 261 260 261 262 263 266 266 266 267 271 275 277 276 275 276 277 279 280 279 280 285 280 270 266 263 258 257 260 260 260 265 269 267 265 264 262 259 258 257 255 257 260 258 253 251 250 250 254 258 262 263 264 263 261 257 253 252 253 253 252 252 253 254 254 254 253 253
278 269 241 225 226 222 213 225 276 293 280 265 256 255 258 259 260 262 263 262 263 264 265 267 268 267 268 271 274 275 275 274 276 277 277 279 279 277 281 283 279 274 270 266 262 262 263 266 268 269 268 266 266 267 265 261 258 256 258 261 260 258 254 249 248 253 255 255 257 260 261 261 261 260 257 255 255 254 253 254 255 255 256 255 255
268 269 261 255 254 256 252 242 243 261 273 273 265 259 259 260 259 260 260 260 262 266 267 269 269 268 268 270 270 271 273 272 272 274 275 277 277 275 277 281 279 273 269 267 266 266 266 265 265 266 267 267 267 270 270 265 263 264 265 264 262 262 260 253 249 253 257 255 253 256 260 259 259 263 264 260 259 258 256 256 257 256 256 255 256
256 258 260 260 262 265 263 258 255 253 256 265 264 260 260 262 263 262 260 260 262 265 268 268 268 267 267 268 269 270 273 274 273 276 276 275 275 275 275 276 276 276 275 273 272 273 272 268 266 265 264 265 267 269 269 267 267 269 269 266 264 264 262 258 254 254 254 252 249 252 259 259 256 259 264 266 266 263 260 260 260 260 260 259 258
264 264 267 268 266 265 264 265 265 262 262 265 263 260 261 262 263 264 263 263 263 263 265 268 270 272 270 271 273 273 274 276 276 276 278 277 276 275 275 276 279 282 282 279 278 279 277 275 272 269 266 267 269 270 270 269 267 266 265 265 265 263 259 256 258 258 253 247 244 246 252 258 258 259 263 269 271 266 263 265 267 267 267 265 262
281 281 284 284 281 276 271 269 270 270 270 271 270 269 269 267 267 267 265 265 265 266 267 269 271 272 273 274 276 277 278 279 279 279 280 280 280 280 282 284 284 285 284 281 279 280 280 278 275 271 269 269 270 270 271 271 269 267 265 264 264 263 261 258 259 260 257 248 243 241 244 253 259 262 265 268 270 267 267 268 269 271 271 270 269
286 280 273 273 279 280 270 258 256 265 281 285 280 273 271 271 270 270 268 267 266 266 266 268 270 273 275 277 277 278 280 280 280 282 282 282 285 288 289 289 288 289 288 283 280 281 282 283 282 278 276 274 272 271 272 272 271 268 266 264 262 261 261 259 257 259 261 257 251 246 246 249 255 259 265 270 271 268 268 269 269 271 272 271 270
288 280 271 266 263 267 266 259 252 245 251 280 284 278 275 274 273 272 272 271 270 269 268 269 270 272 274 277 280 280 281 281 282 283 283 283 284 284 284 283 282 284 285 285 285 286 286 286 286 284 283 282 280 280 279 279 277 274 272 271 268 265 263 264 264 266 266 263 257 250 245 247 251 253 259 268 271 268 268 269 271 272 271 269 267
291 286 281 273 265 265 267 264 260 255 255 268 279 282 282 282 280 280 280 279 278 278 278 277 277 277 278 282 285 287 289 291 291 290 288 286 286 285 283 282 280 280 279 280 283 285 286 287 287 287 288 288 288 287 285 284 282 281 282 281 278 276 275 275 274 273 270 266 263 258 251 250 252 251 254 262 267 266 267 268 269 270 270 269 269
302 299 295 291 285 282 281 274 259 250 258 265 270 276 279 282 285 287 288 289 289 290 290 291 293 293 294 297 300 303 306 301 290 284 282 281 282 282 281 281 282 283 284 285 286 287 287 284 283 285 286 287 288 288 287 285 284 284 285 283 281 280 280 281 280 277 273 270 269 267 262 257 255 253 253 258 261 261 263 264 266 269 269 268 269
331 334 331 325 322 319 317 310 289 258 248 254 264 273 279 285 290 293 294 295 299 312 322 319 312 305 304 304 302 298 291 282 274 273 273 273 273 275 277 280 283 286 290 293 292 290 288 285 283 282 281 281 281 281 281 281 281 281 281 278 277 278 278 278 278 278 277 275 271 269 265 262 261 258 254 254 256 258 259 260 264 268 268 267 268
349 350 349 345 345 347 345 340 330 314 293 276 276 281 286 293 298 299 299 299 304 335 331 306 282 270 264 262 266 268 267 268 270 270 272 274 277 281 285 289 291 293 295 295 294 291 290 288 287 286 285 283 281 279 277 275 275 274 273 273 275 276 274 273 274 276 277 276 274 271 266 262 262 260 256 255 255 254 254 256 260 263 263 265 267
350 349 350 350 353 357 359 359 356 353 353 346 328 317 315 316 314 310 308 309 309 292 266 251 240 236 233 234 241 249 255 259 264 270 275 282 287 290 293 294 295 296 297 295 294 294 294 293 292 291 290 289 286 283 280 277 274 271 269 269 272 273 272 271 271 272 272 272 273 274 268 263 260 259 257 255 253 253 254 254 256 257 257 260 264